Tracking 20092 objects as of 14-Dec-2019
HD Live streaming from Space Station
objects crossing your sky now

FENGYUN 1C DEB

Track FENGYUN 1C DEB now!
10-day predictions


NORAD ID: 37476
Int'l Code: 1999-025EJW
Perigee: 865.9 km
Apogee: 2,643.2 km
Inclination: 98.9 °
Period: 121.5 minutes
Semi major axis: 8125 km
RCS: 0.002 m2 (small)
Launch date: May 10, 1999
Source: People's Republic of China (PRC)
Launch site: Taiyaun Space Center, China (TSC)

Note: This is SATELLITE DEBRIS
aabbcc
Your satellite tracking list
Your tracking list is empty




NASA's NSSDC Master Catalog

Two Line Element Set (TLE):
1 37476U 99025EJW 19340.69694478 +.00000143 +00000-0 +44952-3 0  9997
2 37476 098.9495 310.4794 1093612 143.8917 224.1273 11.85284963413596
Source of the keplerian elements: AFSPC